[[[{"header":{"parameterUnit":"kt","parameterCategory":2,"dx":1,"dy":1,"la1":30.253999710083008,"la2":30.299108505249023,"lo1":-89.0895004272461,"lo2":-89.04439544677734,"nx":28,"ny":28,"refTime":"2022-09-24T21:00:00:Z","depth":0,"parameterNumber":1,"parameterNumberName":"U-component_of_WINDS"},"data":[9.0118,9.0388,9.0411,9.073,9.0805,9.1026,9.1112,9.1226,9.1323,9.1589,9.1746,9.1798,9.1903,9.2095,9.2266,9.2285,9.2354,9.2431,9.2439,9.2071,9.2022,9.1974,9.1909,9.2448,9.2448,9.2815,9.2818,9.2821,8.984,8.9917,9.0094,9.028,9.0431,9.0369,9.0512,9.0641,9.0842,9.0964,9.1121,9.1357,9.1547,9.1628,9.1815,9.194,9.1921,9.1988,9.1977,9.1993,9.1602,9.1533,9.2001,9.2001,9.2001,9.2,9.2,9.2,8.934,8.9503,8.9628,8.982,8.9921,9.0046,9.0204,9.0263,9.0436,9.0634,9.0629,9.0856,9.0983,9.122,9.1305,9.1482,9.1411,9.1492,9.1511,9.153,9.1546,9.1005,9.1516,9.1515,9.1514,9.1513,9.1512,0,8.8979,8.8987,8.9159,8.9338,8.9479,8.9621,8.9753,8.9853,8.9878,9.0021,9.0228,9.0352,9.0596,9.0793,9.0974,9.1047,9.0995,9.0995,9.105,9.1051,9.1029,9.1038,9.0394,9.0979,9.0974,9.0971,9.0969,9.0967,8.8472,8.8661,8.8805,8.8922,8.9,8.9191,8.9309,8.9317,8.9442,8.9607,8.9751,8.995,9.0109,9.0439,9.0505,9.0689,9.0664,9.0884,9.0691,9.0686,9.0662,9.0648,9.0665,9.0919,9.0926,9.093,9.0934,0,8.8182,8.822,8.852,8.8644,8.8681,8.8879,8.8984,8.9148,8.9188,8.9419,8.9473,8.9535,8.974,8.9772,9.0013,9.0023,9.0344,9.032,9.0299,9.0293,9.0489,9.0469,9.1131,9.1215,9.0664,9.0669,9.0673,0,8.7761,8.8011,8.805,8.8223,8.8499,8.85,8.8773,8.8833,8.8943,8.9125,8.9072,8.9244,8.9258,8.9435,8.945,8.972,8.9767,8.9788,8.9788,8.9791,8.9787,8.9853,8.9825,8.9789,8.9785,8.9782,8.978,0,8.7301,8.7617,8.7897,8.7975,8.8133,8.8265,8.8337,8.846,8.8577,8.8733,8.8808,8.8991,8.9091,8.9233,8.925,8.9117,8.9582,8.9404,8.9603,8.9603,8.9701,8.9694,9.0276,8.9775,8.9774,8.9773,8.9772,0,8.6965,8.7123,8.7528,8.7655,8.7738,8.7925,8.8103,8.8271,8.8405,8.8425,8.8549,8.8517,8.8759,8.8578,8.891,8.8731,8.8832,8.8876,8.8891,8.891,8.8706,8.9024,8.958,8.9636,8.8933,8.8926,8.892,0,8.6425,8.6843,8.6846,8.7231,8.7428,8.7352,8.756,8.768,8.7726,8.7898,8.7949,8.8147,8.802,8.8086,8.8247,8.8306,8.8539,8.8276,8.8522,8.853,8.8482,8.8995,8.9067,8.9455,8.8831,8.884,8.8847,0,8.601,8.62,8.6269,8.6355,8.6516,8.6682,8.6922,8.7118,8.7232,8.7376,8.7574,8.7858,8.7771,8.7882,8.7876,8.8042,8.8381,8.7926,8.793,8.8003,8.8791,8.8857,8.8922,8.834,8.8351,8.836,8.8777,0,8.5484,8.57,8.5888,8.6085,8.6218,8.6463,8.6495,8.663,8.6609,8.665,8.6946,8.7056,8.7258,8.7343,8.7325,8.7696,8.7638,8.7544,8.7367,8.7706,8.7844,8.7901,8.7159,8.7154,8.715,8.7147,0,0,8.4955,8.5264,8.526,8.5493,8.5604,8.5522,8.5779,8.5879,8.6084,8.6162,8.6064,8.6478,8.6573,8.6928,8.7036,8.7121,8.7188,8.707,8.7546,8.759,8.7632,8.7778,8.7837,8.7139,8.7138,8.7136,8.7135,0,8.4768,8.4866,8.5122,8.5224,8.5376,8.5407,8.5469,8.5605,8.5643,8.5935,8.5862,8.6044,8.6378,8.6485,8.6583,8.7029,8.6962,8.7089,8.7315,8.7503,8.7553,8.7597,8.7751,8.7807,8.7125,8.7125,8.7126,0,8.4361,8.4461,8.4588,8.484,8.4939,8.5146,8.4967,8.5195,8.5347,8.5247,8.5537,8.5603,8.5751,8.6085,8.6236,8.6151,8.6754,8.6573,8.66,8.6616,8.68,8.686,8.6913,8.6207,8.6204,8.6201,0,0,8.4195,8.4396,8.4505,8.4802,8.4869,8.4921,8.5035,8.5024,8.5158,8.5212,8.5294,8.5427,8.562,8.5747,8.5931,8.6295,8.6323,8.6458,8.6501,8.6537,8.6572,8.6765,8.6824,8.6188,8.6188,8.6187,0,0,8.4116,8.4253,8.4207,8.4556,8.4685,8.4812,8.4992,8.494,8.5107,8.5083,8.5078,8.5113,8.5426,8.5495,8.5322,8.5867,8.5693,8.5735,8.5811,8.5866,8.5908,8.5884,8.5154,0,0,0,0,0,8.394,8.4235,8.4192,8.4255,8.4575,8.4836,8.4877,8.4878,8.4752,8.4895,8.4955,8.4878,8.5399,8.5246,8.5309,8.5501,8.6025,8.6054,8.6081,8.6265,8.6322,8.637,0,0,0,0,0,0,8.3964,8.4042,8.4184,8.4323,8.4395,8.4825,8.4612,8.4621,8.4737,8.4718,8.4869,8.4883,8.489,8.5213,8.5271,8.5453,8.5135,8.6036,8.6061,8.6083,8.6284,8.6331,8.6371,0,0,0,0,0,8.3984,8.4046,8.4558,8.4319,8.4382,8.4454,8.4601,8.4607,8.4697,8.4791,8.4802,8.4687,8.4895,8.4943,8.5247,8.5427,8.5095,8.5117,8.6052,8.6072,8.6089,8.6307,0,0,0,0,0,0,8.3999,8.4054,8.457,8.4589,8.4207,8.443,8.4465,8.4595,8.4762,8.4777,8.4607,8.459,8.4903,8.4939,8.4976,8.5418,8.5063,8.5085,8.5098,8.6067,8.6082,8.6096,0,0,0,0,0,0,8.402,8.407,8.458,8.4439,8.4442,8.4408,8.4439,8.4698,8.4765,8.4569,8.4559,8.4598,8.4847,8.4937,8.4966,8.5371,8.5038,8.5059,8.5074,8.5083,8.6079,8.6091,0,0,0,0,0,0,8.4041,8.4084,8.4434,8.4436,8.4438,8.4652,8.4637,8.4964,8.4643,8.4563,8.4614,8.4601,8.4848,8.4876,8.4959,8.5352,8.5366,8.5039,8.5053,8.5063,8.507,0,0,0,0,0,0,0,8.4058,8.3769,8.4458,8.4434,8.4435,8.4765,8.4771,8.4776,8.464,8.4629,8.4617,8.4607,8.492,8.4943,8.4966,8.5338,0,0,8.5037,8.5047,0,0,0,0,0,0,0,0,8.375,8.3764,8.4458,8.4462,8.4466,8.4766,8.477,8.4775,8.4638,8.4629,8.462,8.4611,8.4926,8.4945,8.4963,0,0,0,0,0,0,0,0,0,0,0,0,0,0,0,8.4459,8.4462,0,8.4767,8.477,8.4774,8.4637,8.4629,8.4622,8.4615,8.4932,8.4947,8.4962,0,0,0,0,0,0,0,0,0,0,0,0,0,0,0,0,0,0,0,0,0,0,0,0,0,0,0,0,0,0,0,0,0,0,0,0,0,0,0,0,0,0,0,0,0,0,0,0,0,0,0,0,0,0,0,0,0,0,0,0,0,0,0,0,0,0,0,0,0]}],[{"header":{"parameterUnit":"kt","parameterCategory":2,"dx":1,"dy":1,"la1":30.253999710083008,"la2":30.299108505249023,"lo1":-89.0895004272461,"lo2":-89.04439544677734,"nx":28,"ny":28,"refTime":"2022-09-24T21:00:00:Z","depth":0,"parameterNumber":2,"parameterNumberName":"V-component_of_WINDS"},"data":[2.4305,2.4383,2.4389,2.4481,2.4503,2.4566,2.4591,2.4624,2.4652,2.4728,2.4773,2.4788,2.4818,2.4873,2.4922,2.4928,2.4947,2.4968,2.4971,2.4871,2.4858,2.4845,2.4826,2.4973,2.4973,2.5073,2.5073,2.5074,2.4225,2.4248,2.4299,2.4354,2.4397,2.438,2.4422,2.4459,2.4517,2.4553,2.4598,2.4666,2.4721,2.4745,2.4799,2.4834,2.4829,2.4848,2.4845,2.485,2.4743,2.4724,2.4851,2.4851,2.4851,2.4851,2.4851,2.4851,2.4082,2.4129,2.4167,2.4223,2.4252,2.4289,2.4335,2.4353,2.4403,2.4461,2.4461,2.4527,2.4564,2.4634,2.4659,2.471,2.4691,2.4714,2.4719,2.4724,2.4728,2.4578,2.472,2.472,2.4719,2.4719,2.4719,0,2.398,2.3982,2.4033,2.4086,2.4127,2.4169,2.4209,2.4238,2.4248,2.4289,2.435,2.4386,2.4458,2.4515,2.4568,2.4591,2.4578,2.4579,2.4594,2.4594,2.4585,2.4588,2.4412,2.4575,2.4574,2.4573,2.4572,2.4572,2.3834,2.3889,2.3934,2.3968,2.3992,2.4048,2.4083,2.4088,2.4125,2.4175,2.4216,2.4275,2.4322,2.4419,2.444,2.4494,2.4489,2.4549,2.4497,2.4493,2.4487,2.4483,2.4487,2.4559,2.4561,2.4562,2.4563,0,2.3751,2.3764,2.3853,2.3892,2.3903,2.3961,2.3994,2.4042,2.4055,2.4123,2.4139,2.4161,2.4221,2.4233,2.4305,2.431,2.4401,2.4396,2.4387,2.4386,2.444,2.4434,2.4617,2.464,2.4491,2.4492,2.4493,0,2.3631,2.3704,2.3719,2.3771,2.3851,2.3855,2.3935,2.3954,2.3988,2.4042,2.403,2.4081,2.409,2.4142,2.4149,2.4226,2.4241,2.4248,2.4249,2.4249,2.4247,2.4268,2.426,2.4252,2.4251,2.425,2.4249,0,2.3498,2.3594,2.3677,2.3701,2.3751,2.379,2.3813,2.3851,2.3887,2.3934,2.3957,2.4012,2.4043,2.4085,2.4094,2.4058,2.419,2.4142,2.4198,2.4197,2.4227,2.4224,2.4384,2.4248,2.4248,2.4248,2.4247,0,2.3404,2.3452,2.3572,2.3612,2.3637,2.3693,2.3747,2.3798,2.384,2.3848,2.3886,2.3881,2.3952,2.3903,2.4,2.395,2.398,2.3994,2.3998,2.4005,2.3949,2.4035,2.4188,2.4203,2.401,2.4009,2.4007,0,2.3246,2.3371,2.3376,2.349,2.355,2.3532,2.3593,2.3632,2.3648,2.37,2.3718,2.3779,2.3746,2.3766,2.3813,2.3834,2.3899,2.3826,2.3899,2.3902,2.3886,2.4027,2.4046,2.4153,2.3982,2.3985,2.3986,0,2.3126,2.3188,2.3208,2.3235,2.3288,2.3339,2.3411,2.3472,2.3506,2.3552,2.3611,2.3698,2.3675,2.3711,2.3713,2.3761,2.3855,2.3731,2.3732,2.3751,2.3972,2.3988,2.4006,2.3846,2.3849,2.3851,2.3967,0,2.2975,2.3041,2.3098,2.3161,2.3202,2.3276,2.3291,2.3332,2.3329,2.3345,2.3434,2.3472,2.3536,2.3561,2.3561,2.3667,2.3651,2.3627,2.358,2.3673,2.3711,2.3727,2.3522,2.352,2.3519,2.3518,0,0,2.282,2.2916,2.292,2.2991,2.3026,2.3008,2.3085,2.3118,2.3185,2.3209,2.3183,2.3312,2.3345,2.3451,2.3481,2.3509,2.3528,2.3497,2.363,2.3642,2.3653,2.3694,2.371,2.3517,2.3516,2.3516,2.3515,0,2.2768,2.2802,2.2879,2.2913,2.2963,2.2977,2.2995,2.3043,2.3057,2.3146,2.313,2.3186,2.3291,2.3326,2.3358,2.3484,2.3469,2.3503,2.3564,2.3618,2.3632,2.3644,2.3687,2.3702,2.3513,2.3513,2.3513,0,2.2651,2.2686,2.2725,2.2807,2.284,2.2904,2.2857,2.2928,2.2974,2.2953,2.3042,2.3065,2.3115,2.3216,2.3261,2.3239,2.3414,2.3363,2.3371,2.3376,2.3429,2.3446,2.3461,2.3266,2.3265,2.3265,0,0,2.2604,2.2667,2.2707,2.2797,2.2819,2.2841,2.2878,2.2879,2.2924,2.2942,2.2973,2.3017,2.3077,2.3118,2.3176,2.3285,2.3295,2.3332,2.3344,2.3353,2.3364,2.342,2.3436,2.3261,2.3261,2.3261,0,0,2.2582,2.2632,2.2622,2.2728,2.2771,2.2817,2.2871,2.286,2.2914,2.2908,2.2915,2.2927,2.3021,2.3046,2.2997,2.3159,2.3113,2.3125,2.314,2.3155,2.3166,2.3158,2.2956,0,0,0,0,0,2.2537,2.2625,2.2615,2.2636,2.274,2.2822,2.2836,2.2843,2.2809,2.2851,2.2874,2.2858,2.302,2.2977,2.2997,2.3052,2.3216,2.3224,2.3231,2.3276,2.3292,2.3305,0,0,0,0,0,0,2.2545,2.257,2.2613,2.2663,2.2686,2.2819,2.2763,2.2767,2.2804,2.28,2.2853,2.2859,2.2868,2.2967,2.2985,2.3037,2.295,2.3219,2.3226,2.3232,2.3282,2.3294,2.3305,0,0,0,0,0,2.2552,2.2572,2.2738,2.2662,2.2682,2.2713,2.2759,2.2763,2.2792,2.2829,2.2834,2.2794,2.2869,2.2885,2.2978,2.3029,2.2937,2.2944,2.3223,2.3229,2.3233,2.3288,0,0,0,0,0,0,2.2557,2.2576,2.2742,2.2749,2.2629,2.2705,2.2717,2.2759,2.2819,2.2825,2.2769,2.2765,2.2871,2.2883,2.2895,2.3025,2.2927,2.2934,2.2938,2.3227,2.3232,2.3235,0,0,0,0,0,0,2.2565,2.2581,2.2745,2.2704,2.2706,2.2699,2.2709,2.279,2.282,2.2756,2.2754,2.2767,2.2853,2.2882,2.2891,2.3018,2.2919,2.2926,2.293,2.2933,2.3231,2.3234,0,0,0,0,0,0,2.2572,2.2586,2.2703,2.2704,2.2706,2.2779,2.277,2.2877,2.2784,2.2753,2.2776,2.2772,2.2853,2.2862,2.2889,2.3011,2.3016,2.2919,2.2924,2.2927,2.2929,0,0,0,0,0,0,0,2.2578,2.2482,2.2704,2.2704,2.2705,2.2809,2.281,2.2812,2.2783,2.278,2.2776,2.2773,2.2882,2.2889,2.2896,2.3006,0,0,2.2919,2.2922,0,0,0,0,0,0,0,0,2.2476,2.248,2.2704,2.2705,2.2706,2.2809,2.281,2.2812,2.2782,2.278,2.2777,2.2775,2.2884,2.2889,2.2895,0,0,0,0,0,0,0,0,0,0,0,0,0,0,0,2.2704,2.2705,0,2.2809,2.281,2.2812,2.2782,2.278,2.2778,2.2776,2.2885,2.289,2.2895,0,0,0,0,0,0,0,0,0,0,0,0,0,0,0,0,0,0,0,0,0,0,0,0,0,0,0,0,0,0,0,0,0,0,0,0,0,0,0,0,0,0,0,0,0,0,0,0,0,0,0,0,0,0,0,0,0,0,0,0,0,0,0,0,0,0,0,0,0]}]]]